DFBIL EDDG-EDDS

Flight info

Callsign DFBIL
Flight time N/A
Altitude 23000
Route DOMEG3Z DOMEG Z841 GMH Q603 TESGA L603 BOMBI N850 KRH T128 BADSO BADSO2A
Aircraft TBM8/L-SDFGRWY/S

Departure

Time 2026-04-17 12:28
Airport Münster Osnabrück Airport (EDDG)

Arrival

Time N/A
Airport Stuttgart Airport (EDDS)
Time Latitude Longitude Altitude Speed Heading
2026-04-17 12:15 52.13130 7.68321 164 ft 0 kts 271°
2026-04-17 12:22 52.13130 7.68320 164 ft 1 kts 271°
2026-04-17 12:23 52.13156 7.68275 163 ft 11 kts
2026-04-17 12:23 52.13201 7.68338 164 ft 9 kts 38°
2026-04-17 12:23 52.13273 7.68396 163 ft 20 kts 71°
2026-04-17 12:23 52.13328 7.68657 164 ft 25 kts 70°
2026-04-17 12:24 52.13380 7.68908 161 ft 21 kts 70°
2026-04-17 12:24 52.13430 7.69141 159 ft 23 kts 70°
2026-04-17 12:24 52.13484 7.69398 162 ft 25 kts 71°
2026-04-17 12:24 52.13535 7.69642 162 ft 20 kts 71°
2026-04-17 12:25 52.13579 7.69848 160 ft 21 kts 71°
2026-04-17 12:25 52.13643 7.70020 160 ft 16 kts 27°
2026-04-17 12:25 52.13691 7.70035 159 ft 0 kts 351°
2026-04-17 12:26 52.13718 7.70024 158 ft 11 kts 344°
2026-04-17 12:27 52.13772 7.69942 161 ft 9 kts 267°
2026-04-17 12:27 52.13769 7.69920 161 ft 0 kts 251°
2026-04-17 12:27 52.13753 7.69846 163 ft 25 kts 252°
2026-04-17 12:28 52.13630 7.69272 166 ft 81 kts 250°
2026-04-17 12:28 52.13405 7.68222 296 ft 111 kts 250°
2026-04-17 12:28 52.13084 7.66942 548 ft 134 kts 246°
2026-04-17 12:28 52.12625 7.65437 803 ft 152 kts 232°
2026-04-17 12:29 52.11822 7.64409 1356 ft 148 kts 196°
2026-04-17 12:29 52.10795 7.64370 1855 ft 149 kts 177°
2026-04-17 12:29 52.09766 7.64301 2340 ft 150 kts 185°
2026-04-17 12:29 52.08727 7.64123 2878 ft 150 kts 185°
2026-04-17 12:30 52.07690 7.63960 3482 ft 149 kts 185°
2026-04-17 12:30 52.06656 7.63801 4052 ft 149 kts 185°
2026-04-17 12:30 52.05623 7.63648 4623 ft 149 kts 185°
2026-04-17 12:30 52.04588 7.63493 5186 ft 149 kts 185°
2026-04-17 12:31 52.03553 7.63342 5711 ft 150 kts 185°
2026-04-17 12:31 52.02514 7.63197 6257 ft 149 kts 185°
2026-04-17 12:31 52.01478 7.63046 6771 ft 150 kts 185°
2026-04-17 12:31 52.00433 7.62901 7241 ft 152 kts 185°
2026-04-17 12:32 51.99375 7.62750 7720 ft 153 kts 186°
2026-04-17 12:32 51.98319 7.62601 8187 ft 155 kts 186°
2026-04-17 12:32 51.97238 7.62452 8657 ft 157 kts 186°
2026-04-17 12:32 51.96145 7.62299 9141 ft 158 kts 187°
2026-04-17 12:33 51.95039 7.62143 9625 ft 160 kts 187°
2026-04-17 12:33 51.93922 7.61983 10099 ft 162 kts 188°
2026-04-17 12:33 51.92792 7.61823 10522 ft 164 kts 188°
2026-04-17 12:33 51.91650 7.61662 10951 ft 165 kts 188°
2026-04-17 12:34 51.90503 7.61501 11375 ft 166 kts 188°
2026-04-17 12:34 51.89342 7.61339 11804 ft 168 kts 188°
2026-04-17 12:34 51.88174 7.61176 12235 ft 169 kts 188°
2026-04-17 12:34 51.86998 7.61009 12664 ft 170 kts 189°
2026-04-17 12:35 51.85814 7.60844 13102 ft 171 kts 189°
2026-04-17 12:35 51.84634 7.60678 13522 ft 173 kts 189°
2026-04-17 12:35 51.83433 7.60509 13957 ft 174 kts 189°
2026-04-17 12:35 51.82222 7.60341 14335 ft 175 kts 189°
2026-04-17 12:37 51.73522 7.59131 16968 ft 183 kts 189°
2026-04-17 12:37 51.72251 7.58953 17338 ft 184 kts 189°
2026-04-17 12:38 51.70962 7.58895 17713 ft 189 kts 178°
2026-04-17 12:38 51.69681 7.59446 18070 ft 194 kts 165°
2026-04-17 12:38 51.68398 7.60193 18431 ft 196 kts 165°
2026-04-17 12:38 51.67112 7.60943 18752 ft 197 kts 165°
2026-04-17 12:39 51.65822 7.61691 19061 ft 198 kts 165°
2026-04-17 12:39 51.64522 7.62440 19370 ft 199 kts 165°
2026-04-17 12:39 51.63212 7.63191 19679 ft 200 kts 165°
2026-04-17 12:39 51.61899 7.63950 19982 ft 201 kts 165°
2026-04-17 12:40 51.60577 7.64712 20283 ft 203 kts 165°
2026-04-17 12:40 51.59264 7.65470 20581 ft 204 kts 165°
2026-04-17 12:40 51.57926 7.66237 20879 ft 205 kts 166°
2026-04-17 12:40 51.56577 7.67010 21179 ft 206 kts 166°
2026-04-17 12:41 51.55218 7.67783 21476 ft 207 kts 165°
2026-04-17 12:41 51.54313 7.68298 21673 ft 208 kts 165°
2026-04-17 12:41 51.52942 7.69077 21969 ft 209 kts 166°
2026-04-17 12:41 51.51568 7.69857 22274 ft 210 kts 166°
2026-04-17 12:42 51.50184 7.70641 22572 ft 211 kts 166°
2026-04-17 12:42 51.48785 7.71433 22825 ft 214 kts 166°
2026-04-17 12:42 51.47372 7.72231 23109 ft 216 kts 166°
2026-04-17 12:42 51.45922 7.73044 23189 ft 227 kts 166°
2026-04-17 12:43 51.44386 7.73886 23212 ft 240 kts 166°
2026-04-17 12:43 51.42786 7.74755 23234 ft 251 kts 166°
2026-04-17 12:43 51.41096 7.75681 23229 ft 262 kts 166°
2026-04-17 12:43 51.39338 7.76654 23225 ft 271 kts 165°
2026-04-17 12:44 51.37530 7.77666 23229 ft 279 kts 165°
2026-04-17 12:44 51.35675 7.78709 23229 ft 285 kts 165°
2026-04-17 12:44 51.33778 7.79776 23225 ft 291 kts 165°
2026-04-17 12:44 51.31856 7.80863 23213 ft 295 kts 165°
2026-04-17 12:45 51.29905 7.81968 23204 ft 298 kts 164°
2026-04-17 12:45 51.27938 7.83082 23210 ft 301 kts 164°
2026-04-17 12:45 51.25954 7.84205 23203 ft 303 kts 164°
2026-04-17 12:45 51.23984 7.85318 23211 ft 305 kts 164°
2026-04-17 12:46 51.21954 7.86466 23210 ft 306 kts 164°
2026-04-17 12:46 51.19942 7.87599 23206 ft 307 kts 164°
2026-04-17 12:46 51.17957 7.88780 23207 ft 309 kts 160°
2026-04-17 12:46 51.16016 7.90306 23210 ft 312 kts 154°
2026-04-17 12:47 51.14175 7.92163 23207 ft 314 kts 150°
2026-04-17 12:47 51.12341 7.94060 23209 ft 314 kts 150°
2026-04-17 12:47 51.10496 7.95945 23207 ft 315 kts 150°
2026-04-17 12:47 51.08651 7.97823 23203 ft 315 kts 150°
2026-04-17 12:48 51.06799 7.99707 23207 ft 315 kts 150°
2026-04-17 12:48 51.04949 8.01587 23208 ft 316 kts 150°
2026-04-17 12:48 51.03099 8.03466 23213 ft 316 kts 150°
2026-04-17 12:48 51.01242 8.05349 23216 ft 316 kts 150°
2026-04-17 12:49 50.99408 8.07214 23208 ft 317 kts 150°
2026-04-17 12:49 50.97545 8.09103 23213 ft 317 kts 150°
2026-04-17 12:49 50.95682 8.10982 23224 ft 318 kts 150°
2026-04-17 12:49 50.93814 8.12862 23223 ft 318 kts 150°
2026-04-17 12:50 50.91977 8.14717 23588 ft 307 kts 150°
2026-04-17 12:50 50.90206 8.16540 23932 ft 296 kts 149°
2026-04-17 12:50 50.88526 8.18295 24391 ft 283 kts 149°
2026-04-17 12:50 50.86917 8.19970 24856 ft 270 kts 149°
2026-04-17 12:51 50.85365 8.21559 25172 ft 266 kts 150°
2026-04-17 12:51 50.83765 8.23144 25201 ft 274 kts 151°
2026-04-17 12:51 50.82133 8.24721 25217 ft 282 kts 151°
2026-04-17 12:51 50.80434 8.26359 25225 ft 288 kts 151°
2026-04-17 12:52 50.78708 8.28037 25236 ft 295 kts 151°
2026-04-17 12:52 50.76947 8.29766 25235 ft 300 kts 150°
2026-04-17 12:52 50.75162 8.31531 25235 ft 304 kts 150°
2026-04-17 12:52 50.73356 8.33324 25236 ft 308 kts 150°
2026-04-17 12:53 50.71536 8.35134 25237 ft 311 kts 150°
2026-04-17 12:53 50.69695 8.36968 25235 ft 314 kts 150°
2026-04-17 12:53 50.67841 8.38816 25233 ft 316 kts 150°
2026-04-17 12:53 50.65975 8.40676 25227 ft 318 kts 150°
2026-04-17 12:54 50.64100 8.42545 25227 ft 320 kts 150°
2026-04-17 12:54 50.62233 8.44412 25207 ft 322 kts 150°
2026-04-17 12:54 50.60338 8.46296 25205 ft 323 kts 150°
2026-04-17 12:54 50.58432 8.48186 25207 ft 324 kts 150°
2026-04-17 12:55 50.56518 8.50079 25197 ft 325 kts 150°
2026-04-17 12:55 50.54605 8.51968 25204 ft 325 kts 150°
2026-04-17 12:55 50.52683 8.53866 25205 ft 326 kts 150°
2026-04-17 12:55 50.50766 8.55761 25201 ft 326 kts 149°
2026-04-17 12:56 50.48842 8.57662 25206 ft 326 kts 150°
2026-04-17 12:56 50.46914 8.59563 25207 ft 326 kts 150°
2026-04-17 12:56 50.44949 8.61337 25206 ft 325 kts 156°
2026-04-17 12:56 50.42897 8.62675 25203 ft 323 kts 165°
2026-04-17 12:57 50.40733 8.63638 25197 ft 323 kts 167°